Regional Weather Roundup
Issued by NWS

Home | Current Version | Previous Version | Graphics & Text | Print | Product List | Glossary Off
Versions: 1 2 3 4 5 6 7 8 9 10 11 12 13 14 15 16 17 18 19 20 21 22 23 24 25 26 27 28 29 30 31 32 33 34 35 36 37 38 39 40 41 42 43 44 45 46 47 48 49 50

000
ASUS44 KFWD 300815
RWRTX
NORTH TEXAS HOURLY WEATHER ROUNDUP
NATIONAL WEATHER SERVICE FORT WORTH TX
300 AM CDT TUE MAY 30 2017

NOTE: "FAIR" INDICATES FEW OR NO CLOUDS BELOW 12,000 FEET WITH NO
SIGNIFICANT WEATHER AND/OR OBSTRUCTIONS TO VISIBILITY.

TXZ118-119-300900-
DALLAS/FORT WORTH METROPLEX

CITY           SKY/WX    TMP DP  RH WIND       PRES   REMARKS
DFW AIRPORT    MOCLDY    71  59  65 S5        30.04F
DALLAS LOVE    PTCLDY    69  58  67 SE6       30.05F
FTW MEACHAM    CLEAR     69  58  67 CALM      30.05F
DAL-EXECUTIVE  PTCLDY    65  61  87 CALM      30.05F
FTW-ALLIANCE   PTCLDY    60  55  83 NW3       30.06S
FTW-NAS-JRB    PTCLDY    67  56  67 NW5       30.06F
FTW-SPINKS     PTCLDY    61  56  81 CALM      30.07F
ARLINGTON      PTCLDY    60  58  92 CALM      30.05F
GRAND PRAIRIE  PTCLDY    70  58  64 CALM      30.07F
ADDISON        CLEAR     70  57  63 SE5       30.07F
MESQUITE       CLEAR     64  60  86 CALM      30.05F
LANCASTER      CLEAR     62  59  91 CALM      30.06F
$$

TXZ091>094-102>105-117-120-121-131>134-300900-
NORTH CENTRAL TEXAS

CITY           SKY/WX    TMP DP  RH WIND       PRES   REMARKS
SHRMAN/DENISON CLEAR     66  56  69 CALM      30.08R
GAINESVILLE    CLEAR     64  55  72 CALM      30.09S
BOWIE          CLEAR     60  60  97 CALM      30.08R
BRIDGEPORT     PTCLDY    57  53  84 CALM      30.08F
DECATUR        CLEAR     69  53  55 S5        30.08S
DENTON         CLEAR     60  59  96 NW3       30.06S
MCKINNEY       CLEAR     61  58  90 CALM      30.06F
BONHAM         HAZE      63  57  82 S5        30.06S VSB 1/2
GREENVILLE     CLEAR     63  61  94 CALM      30.05F
ROCKWALL       CLEAR     69  61  76 SE3       30.05F
TERRELL        CLEAR     65  61  87 CALM      30.05F
WAXAHACHIE     CLEAR     63  60  93 CALM      30.07F
CLEBURNE       PTCLDY    66  59  77 CALM      30.08S
GRANBURY       CLOUDY    61  54  77 CALM      30.08S
$$

TXZ083>090-098>101-113>116-127>130-139>142-154-155-300900-
WESTERN NORTH TEXAS

CITY           SKY/WX    TMP DP  RH WIND       PRES   REMARKS
WICHITA FALLS  CLEAR     66  51  58 SW5       30.06F
WF-KICKAPOO    CLEAR     68  51  55 SE5       30.09S
VERNON         MOCLDY    67  48  49 SW5       30.08F
ABILENE        CLOUDY    61  54  77 SE6       30.11S
ABILENE-DYESS  CLOUDY    61  56  83 CALM      30.09S
GRAHAM           N/A     58  52  80 CALM      30.08R
BRECKENRIDGE   CLOUDY    63  50  64 SW3       30.09R
CISCO          CLOUDY    63  54  72 S8        30.11R
RANGER         CLOUDY    60  51  70 S6        30.10S
MINERAL WELLS  CLEAR     60  51  72 SE5       30.06F
STEPHENVILLE   CLOUDY    66  55  69 CALM      30.11S
COMANCHE       CLOUDY    67  60  79 CALM      30.09S
BROWNWOOD      CLOUDY    63  59  88 CALM      30.09F
COLEMAN        MOCLDY    65  55  68 CALM      30.10F
$$

TXZ143>147-156>162-174-175-300900-
CENTRAL TEXAS

CITY           SKY/WX    TMP DP  RH WIND       PRES   REMARKS
WACO           PTCLDY    67  66  97 CALM      30.05S
WACO-MCGREGOR  CLEAR     68  67  96 NW3       30.06S FOG
HILLSBORO      CLEAR     69  66  90 E7        30.05F
CORSICANA      CLEAR     72  69  90 SE3       30.05F
MEXIA          CLEAR     68  67  96 CALM      30.05R
HEARNE         CLOUDY    69  69 100 CALM      30.05S
CAMERON        PTCLDY    71  69  95 CALM      30.04F
TEMPLE         CLOUDY    70  68  93 SE3       30.05F
KILLEEN        CLEAR     70  67  90 CALM      30.05F
FORT HOOD      CLEAR     69  66  92 CALM      30.03F
HAMILTON       CLOUDY    70  67  91 CALM      30.09S
LAMPASAS       CLOUDY    71  69  95 CALM      30.06F
$$

TXZ095>097-106>112-122>126-135>138-148>153-164>167-300900-
EAST TEXAS

CITY           SKY/WX    TMP DP  RH WIND       PRES   REMARKS
PARIS          CLEAR     64  57  77 CALM      30.06S
SULPHUR SPRNGS CLEAR     64  59  85 CALM      30.07F
MOUNT PLEASANT CLEAR     62  62 100 CALM      30.07S
GILMER         PTCLDY    65  65  99 CALM      30.06S
MINEOLA        CLEAR     64  63  94 CALM      30.05F
TYLER          CLEAR     70  69  97 CALM      30.04F
LONGVIEW       FOG      N/A N/A N/A CALM      30.04F VSB 1/2
MARSHALL       CLEAR     65  63  93 CALM      30.06F
ATHENS         CLEAR     64  64 100 CALM      30.04S
PALESTINE      CLEAR     69  69 100 CALM      30.05F
JACKSONVILLE   CLEAR     70  70  99 CALM      30.07F
HENDERSON      FOG      N/A N/A N/A CALM      30.06F VSB 1/4
CENTER         MOSUNNY   71  70  96 SE3       30.06S FOG
NACOGDOCHES    CLEAR     66  64  94 CALM      30.02F
LUFKIN         PTCLDY    68  67  96 CALM      30.03F
$$

SUPPLEMENTAL OBSERVATIONS (NWS FORT WORTH AREA)

CITY           SKY/WX    TMP DP  RH WIND       PRES   REMARKS
DENISON DAM      N/A     68  57  68 CALM        N/A
CADDO GRASSLND   N/A     61  57  88 CALM        N/A
PAT MAYSE LAKE   N/A     68  59  73 W1          N/A
GREENVILLE       N/A     63  57  82 CALM        N/A
CEDAR HILL       N/A     70  63  78 SE5         N/A
LBJ GRASSLAND    N/A     64  54  68 CALM        N/A
POSSUM KINGDOM   N/A     66  48  52 SE1         N/A
GRANBURY         N/A     61  54  77 NW2         N/A
MCGREGOR         N/A     70  66  88 CALM        N/A
TEMPLE           N/A     70  66  88 NE2         N/A
ATHENS           N/A     70  68  94 E1          N/A
$$

SUPPLEMENTAL OBSERVATIONS (NWS NORMAN AREA)

CITY           SKY/WX    TMP DP  RH WIND       PRES   REMARKS
GOODLETT         N/A     64  45  48 S8        30.09F
ODELL            N/A     69  49  49 S7        30.09F
CROWELL          N/A     64  48  56 SW7       30.10S
KNOX CITY        N/A     62  46  55 S6        30.10S
SEYMOUR          N/A     62  49  61 SE3       30.09F
MILLERS CREEK    N/A     64  52  63 S3          N/A
$$

SUPPLEMENTAL OBSERVATIONS (NWS SAN ANGELO AREA)

CITY           SKY/WX    TMP DP  RH WIND       PRES   REMARKS
WEINERT          N/A     64  45  49 S6        30.11S
HASKELL          N/A     64  49  57 S5        30.11S
THROCKMORTON     N/A     62  56  79 SW2       30.10F
STAMFORD         N/A     64  55  74 SE3       30.11S
CLYDE            N/A     65  56  75 SE7       30.13S
HAMBY            N/A     61  52  72 SE5         N/A
IVIE RESERVOIR   N/A    N/A N/A N/A E7          N/A
COLORADO BEND    N/A     66  63  88 W1          N/A
$$

SUPPLEMENTAL OBSERVATIONS (NWS SHREVEPORT AREA)

CITY           SKY/WX    TMP DP  RH WIND       PRES   REMARKS
CLARKSVILLE      N/A     61  57  88 S1          N/A
TEXARKANA        N/A     61  59  94 CALM        N/A
LINDEN           N/A     64  63  94 CALM        N/A
CADDO LAKE       N/A    N/A N/A N/A CALM        N/A
GILMER           N/A     64  63  94 CALM        N/A
HENDERSON        N/A     66  64  94 CALM        N/A
LUFKIN           N/A     68  66  94 MISG        N/A
N SABINE NF      N/A     66  64  94 MISG        N/A
S SABINE NF      N/A     66  64  94 CALM        N/A
$$

SUPPLEMENTAL OBSERVATIONS ARE A COLLECTION OF AUTOMATED INSTRUMENTS
THAT ARE MAINTAINED BY A VARIETY OF FEDERAL AND STATE AGENCIES.
CERTAIN ELEMENTS...SUCH AS HUMIDITY VALUES AND SUSTAINED WIND
SPEEDS...MAY BE APPROXIMATED.




USA.gov is the U.S. government's official web portal to all federal, state and local government web resources and services.